Flag for Germany Weather past 2 weeks in Wiesbaden, Hesse, Germany

Now
68 °F

Sunny.


Feels Like: 68 °F
Forecast: 52 / 69 °F
Wind: 6 mph from Southeast

Location: Wiesbaden Airport

Current Time: Oct 2, 2014 at 1:21:43 PM

Latest Report: Oct 2, 2014 at 12:58 PM


Visibility: N/A

Pressure: 30.39 "Hg

Humidity: 69%

Dew point: 57 °F

Location of WiesbadenLocation

Historic Weather in Wiesbaden — Graph

°F

Wiesbaden temperature yesterday

Maximum temperature yesterday: 72 °F (at 4:58 PM)
Minimum temperature yesterday: 54 °F (at 7:58 AM)
Average temperature yesterday: 61 °F

Past Weeks' High & Low Weather Summary

 TemperatureHumidityPressure
High77 °F (Sep 17, 3:58 PM)100% (Sep 19, 6:58 AM)30.41 "Hg (Sep 19, 6:58 AM)
Low43 °F (Sep 23, 5:58 AM)49% (Sep 17, 4:58 PM)29.86 "Hg (Sep 18, 2:58 AM)
Average61 °F83%30.13 "Hg
* Reported Sep 17 11:58 AM — Oct 2 11:58 AM, Wiesbaden, Weather by CustomWeather, © 2014

Note: Actual official high and low records may vary slightly from our data, if they occured in-between our weather recording intervals... More about our weather records

Advertising

Wiesbaden weather history for previous 24 hours

 ConditionsComfort  
Time TempWeatherWind HumidityBarometerVisibility
11:58 AM
Oct 2
66 °FSunny.3 mph75%30.40 "HgN/A
10:58 AM62 °FSunny.No wind83%30.41 "HgN/A
9:58 AM59 °FSunny.2 mph88%30.41 "HgN/A
8:58 AM55 °FSunny.No wind94%30.40 "HgN/A
8:04 AM52 °FFog.No wind100%30.39 "Hg2 mi
7:58 AM52 °FFog.No wind100%30.39 "Hg4 mi
6:58 AM53 °FFog.2 mph99%30.38 "Hg4 mi
5:58 AM54 °FFog.1 mph98%30.38 "Hg4 mi
5:04 AM55 °FFog.1 mph94%30.38 "Hg1 mi
4:58 AM55 °FFog.1 mph96%30.38 "Hg1 mi
3:58 AM54 °FFog.2 mph96%30.37 "Hg1 mi
2:58 AM54 °FFog.2 mph92%30.37 "Hg1 mi
1:58 AM55 °FFog.1 mph94%30.37 "Hg1 mi
1:02 AM55 °FFog.No wind94%30.37 "Hg1 mi
12:58 AM56 °FFog.No wind90%30.37 "Hg1 mi
11:58 PM
Oct 1
56 °FFog.2 mph92%30.36 "Hg1 mi
11:04 PM57 °FFog.No wind88%30.36 "Hg1 mi
10:58 PM57 °FFog.2 mph94%30.36 "Hg1 mi
10:04 PM59 °FFog.No wind88%30.35 "Hg2 mi
9:58 PM60 °FClear.1 mph86%30.35 "Hg5 mi
8:58 PM63 °FClear.6 mph83%30.34 "HgN/A
7:58 PM63 °FSunny.2 mph85%30.33 "HgN/A
6:58 PM68 °FSunny.No wind69%30.32 "HgN/A
5:58 PM70 °FOvercast.No wind65%30.31 "HgN/A
5:01 PM72 °FPartly sunny.1 mph61%30.31 "HgN/A
4:58 PM72 °FPartly sunny.No wind61%30.31 "HgN/A
3:58 PM68 °FOvercast.3 mph79%30.31 "HgN/A
2:58 PM66 °FDrizzle. Overcast.3 mph86%30.32 "HgN/A
1:58 PM70 °FLight rain. Broken clouds.6 mph73%30.32 "HgN/A
Weather by CustomWeather, © 2014

See weather overviewHow to use our weather pages